Time,TemperatureF,DewpointF,PressureIn,WindDirection,WindDirectionDegrees,WindSpeedMPH,WindSpeedGustMPH,Humidity,HourlyPrecipIn,Conditions,Clouds,dailyrainin,SolarRadiationWatts/m^2,SoftwareType,DateUTC
2013-02-26 00:05:00,44.7,11.0,29.99,SW,222,5.0,10.0,25,0.00,,,0.00,0,weatherlink.com 1.10,2013-02-26 07:05:00,
2013-02-26 00:20:00,44.0,12.0,29.99,SW,221,0.0,4.0,27,0.00,,,0.00,0,weatherlink.com 1.10,2013-02-26 07:20:00,
2013-02-26 00:35:00,42.1,11.0,29.99,SW,221,0.0,1.0,28,0.00,,,0.00,0,weatherlink.com 1.10,2013-02-26 07:35:00,
2013-02-26 00:50:00,40.7,11.0,29.98,SW,221,0.0,0.0,30,0.00,,,0.00,0,weatherlink.com 1.10,2013-02-26 07:50:00,
2013-02-26 01:05:00,40.8,11.0,29.99,SW,221,0.0,1.0,29,0.00,,,0.00,0,weatherlink.com 1.10,2013-02-26 08:05:00,
2013-02-26 01:20:00,41.0,11.0,29.99,SW,221,0.0,2.0,29,0.00,,,0.00,0,weatherlink.com 1.10,2013-02-26 08:20:00,
2013-02-26 01:35:00,40.1,11.0,29.98,SW,221,2.0,4.0,30,0.00,,,0.00,0,weatherlink.com 1.10,2013-02-26 08:35:00,
2013-02-26 01:50:00,39.3,11.0,29.98,SW,221,6.0,7.0,31,0.00,,,0.00,0,weatherlink.com 1.10,2013-02-26 08:50:00,
2013-02-26 02:05:00,41.0,10.0,29.98,SW,225,1.0,6.0,28,0.00,,,0.00,0,weatherlink.com 1.10,2013-02-26 09:05:00,
2013-02-26 02:20:00,40.8,10.0,29.98,SW,225,1.0,6.0,28,0.00,,,0.00,0,weatherlink.com 1.10,2013-02-26 09:20:00,
2013-02-26 02:35:00,40.1,10.0,29.97,SW,225,0.0,1.0,29,0.00,,,0.00,0,weatherlink.com 1.10,2013-02-26 09:35:00,
2013-02-26 02:50:00,39.7,10.0,29.96,SW,225,0.0,1.0,29,0.00,,,0.00,0,weatherlink.com 1.10,2013-02-26 09:50:00,
2013-02-26 03:05:00,39.2,10.0,29.95,SW,225,0.0,1.0,30,0.00,,,0.00,0,weatherlink.com 1.10,2013-02-26 10:05:00,
2013-02-26 03:20:00,39.3,10.0,29.95,SW,225,0.0,0.0,30,0.00,,,0.00,0,weatherlink.com 1.10,2013-02-26 10:20:00,
2013-02-26 03:35:00,40.1,11.0,29.96,SW,225,0.0,1.0,30,0.00,,,0.00,0,weatherlink.com 1.10,2013-02-26 10:35:00,
2013-02-26 03:50:00,40.1,11.0,29.95,SW,225,0.0,0.0,30,0.00,,,0.00,0,weatherlink.com 1.10,2013-02-26 10:50:00,
2013-02-26 04:05:00,39.8,11.0,29.94,SW,225,0.0,1.0,30,0.00,,,0.00,0,weatherlink.com 1.10,2013-02-26 11:05:00,
2013-02-26 04:20:00,39.1,11.0,29.93,SW,225,0.0,0.0,32,0.00,,,0.00,0,weatherlink.com 1.10,2013-02-26 11:20:00,
2013-02-26 04:35:00,38.9,11.0,29.93,SW,225,0.0,1.0,32,0.00,,,0.00,0,weatherlink.com 1.10,2013-02-26 11:35:00,
2013-02-26 04:50:00,39.1,11.0,29.93,SW,225,2.0,7.0,32,0.00,,,0.00,0,weatherlink.com 1.10,2013-02-26 11:50:00,
2013-02-26 05:05:00,38.5,12.0,29.93,SW,225,0.0,0.0,33,0.00,,,0.00,0,weatherlink.com 1.10,2013-02-26 12:05:00,
2013-02-26 05:20:00,38.0,11.0,29.94,SW,225,2.0,2.0,33,0.00,,,0.00,0,weatherlink.com 1.10,2013-02-26 12:20:00,
2013-02-26 05:36:00,37.7,11.0,29.94,SW,225,0.0,1.0,33,0.00,,,0.00,0,weatherlink.com 1.10,2013-02-26 12:36:00,
2013-02-26 05:51:00,37.5,11.0,29.94,SW,225,0.0,1.0,34,0.00,,,0.00,0,weatherlink.com 1.10,2013-02-26 12:51:00,
2013-02-26 06:06:00,38.4,12.0,29.94,SW,225,1.0,2.0,34,0.00,,,0.00,0,weatherlink.com 1.10,2013-02-26 13:06:00,
2013-02-26 06:21:00,38.9,13.0,29.94,SW,225,2.0,6.0,34,0.00,,,0.00,0,weatherlink.com 1.10,2013-02-26 13:21:00,
2013-02-26 06:36:00,38.5,12.0,29.95,SW,226,1.0,6.0,34,0.00,,,0.00,5,weatherlink.com 1.10,2013-02-26 13:36:00,
2013-02-26 06:51:00,38.0,12.0,29.95,SW,226,0.0,3.0,35,0.00,,,0.00,12,weatherlink.com 1.10,2013-02-26 13:51:00,
2013-02-26 07:06:00,38.4,13.0,29.95,SW,226,1.0,2.0,35,0.00,,,0.00,32,weatherlink.com 1.10,2013-02-26 14:06:00,
2013-02-26 07:21:00,39.8,13.0,29.95,SW,226,0.0,4.0,33,0.00,,,0.00,81,weatherlink.com 1.10,2013-02-26 14:21:00,
2013-02-26 07:36:00,40.6,13.0,29.95,SW,226,2.0,4.0,33,0.00,,,0.00,142,weatherlink.com 1.10,2013-02-26 14:36:00,
2013-02-26 07:51:00,41.3,13.0,29.95,SW,226,1.0,4.0,32,0.00,,,0.00,204,weatherlink.com 1.10,2013-02-26 14:51:00,
2013-02-26 08:06:00,42.0,14.0,29.95,SW,227,1.0,5.0,32,0.00,,,0.00,265,weatherlink.com 1.10,2013-02-26 15:06:00,
2013-02-26 08:21:00,41.5,14.0,29.95,SW,221,7.0,8.0,32,0.00,,,0.00,318,weatherlink.com 1.10,2013-02-26 15:21:00,
2013-02-26 08:36:00,42.7,15.0,29.95,SW,228,5.0,10.0,32,0.00,,,0.00,367,weatherlink.com 1.10,2013-02-26 15:36:00,
2013-02-26 08:51:00,43.5,15.0,29.95,SW,222,2.0,7.0,31,0.00,,,0.00,415,weatherlink.com 1.10,2013-02-26 15:51:00,
2013-02-26 09:06:00,45.1,15.0,29.95,SW,217,0.0,5.0,30,0.00,,,0.00,459,weatherlink.com 1.10,2013-02-26 16:06:00,
2013-02-26 09:21:00,45.5,16.0,29.94,SW,217,3.0,8.0,30,0.00,,,0.00,510,weatherlink.com 1.10,2013-02-26 16:21:00,
2013-02-26 09:36:00,46.6,16.0,29.94,SW,231,4.0,11.0,29,0.00,,,0.00,554,weatherlink.com 1.10,2013-02-26 16:36:00,
2013-02-26 09:52:00,47.5,16.0,29.93,SW,236,7.0,12.0,28,0.00,,,0.00,594,weatherlink.com 1.10,2013-02-26 16:52:00,
2013-02-26 10:07:00,49.5,17.0,29.93,SW,230,4.0,12.0,27,0.00,,,0.00,631,weatherlink.com 1.10,2013-02-26 17:07:00,
2013-02-26 10:22:00,50.1,16.0,29.93,SW,229,4.0,12.0,26,0.00,,,0.00,664,weatherlink.com 1.10,2013-02-26 17:22:00,
2013-02-26 10:37:00,50.7,16.0,29.93,SW,234,5.0,15.0,25,0.00,,,0.00,694,weatherlink.com 1.10,2013-02-26 17:37:00,
2013-02-26 10:52:00,51.9,17.0,29.93,SW,236,5.0,12.0,25,0.00,,,0.00,721,weatherlink.com 1.10,2013-02-26 17:52:00,
2013-02-26 11:07:00,52.1,17.0,29.93,SW,221,9.0,10.0,25,0.00,,,0.00,742,weatherlink.com 1.10,2013-02-26 18:07:00,
2013-02-26 11:22:00,52.9,16.0,29.92,SW,236,2.0,11.0,23,0.00,,,0.00,763,weatherlink.com 1.10,2013-02-26 18:22:00,
2013-02-26 11:37:00,53.6,16.0,29.91,WSW,240,8.0,12.0,23,0.00,,,0.00,777,weatherlink.com 1.10,2013-02-26 18:37:00,
2013-02-26 11:54:00,54.6,15.0,29.90,WSW,238,3.0,9.0,21,0.00,,,0.00,789,weatherlink.com 1.10,2013-02-26 18:54:00,
2013-02-26 12:07:00,55.4,16.0,29.89,WSW,240,9.0,15.0,21,0.00,,,0.00,796,weatherlink.com 1.10,2013-02-26 19:07:00,
2013-02-26 12:22:00,56.7,17.0,29.88,SW,225,6.0,14.0,21,0.00,,,0.00,798,weatherlink.com 1.10,2013-02-26 19:22:00,
2013-02-26 12:37:00,57.3,15.0,29.86,SW,228,7.0,15.0,19,0.00,,,0.00,796,weatherlink.com 1.10,2013-02-26 19:37:00,
2013-02-26 12:52:00,58.0,14.0,29.85,WSW,244,1.0,16.0,18,0.00,,,0.00,788,weatherlink.com 1.10,2013-02-26 19:52:00,
2013-02-26 13:07:00,59.4,16.0,29.84,WSW,252,7.0,15.0,18,0.00,,,0.00,777,weatherlink.com 1.10,2013-02-26 20:07:00,
2013-02-26 13:22:00,60.4,15.0,29.83,SW,225,18.0,18.0,17,0.00,,,0.00,763,weatherlink.com 1.10,2013-02-26 20:22:00,
2013-02-26 13:37:00,61.3,15.0,29.83,WSW,238,2.0,15.0,16,0.00,,,0.00,742,weatherlink.com 1.10,2013-02-26 20:37:00,
2013-02-26 13:53:00,62.4,15.0,29.82,WSW,237,4.0,16.0,16,0.00,,,0.00,721,weatherlink.com 1.10,2013-02-26 20:53:00,
2013-02-26 14:08:00,62.4,14.0,29.81,SW,233,7.0,19.0,15,0.00,,,0.00,693,weatherlink.com 1.10,2013-02-26 21:08:00,
2013-02-26 14:23:00,62.1,14.0,29.80,SW,220,8.0,16.0,15,0.00,,,0.00,663,weatherlink.com 1.10,2013-02-26 21:23:00,
2013-02-26 14:38:00,63.3,13.0,29.80,SW,234,4.0,17.0,14,0.00,,,0.00,633,weatherlink.com 1.10,2013-02-26 21:38:00,
2013-02-26 14:53:00,63.5,12.0,29.79,SW,220,10.0,19.0,13,0.00,,,0.00,591,weatherlink.com 1.10,2013-02-26 21:53:00,
2013-02-26 15:08:00,64.4,12.0,29.79,SW,228,1.0,17.0,13,0.00,,,0.00,548,weatherlink.com 1.10,2013-02-26 22:08:00,
2013-02-26 15:23:00,64.9,11.0,29.78,SW,214,10.0,22.0,12,0.00,,,0.00,508,weatherlink.com 1.10,2013-02-26 22:23:00,
2013-02-26 15:38:00,65.0,9.0,29.78,WSW,240,1.0,21.0,11,0.00,,,0.00,457,weatherlink.com 1.10,2013-02-26 22:38:00,
2013-02-26 15:53:00,65.5,9.0,29.77,SW,227,6.0,19.0,11,0.00,,,0.00,406,weatherlink.com 1.10,2013-02-26 22:53:00,
2013-02-26 16:08:00,65.4,7.0,29.77,WSW,242,3.0,21.0,10,0.00,,,0.00,355,weatherlink.com 1.10,2013-02-26 23:08:00,
2013-02-26 16:23:00,65.4,7.0,29.77,SW,234,17.0,22.0,10,0.00,,,0.00,299,weatherlink.com 1.10,2013-02-26 23:23:00,
2013-02-26 16:38:00,65.2,7.0,29.77,SW,230,12.0,23.0,10,0.00,,,0.00,243,weatherlink.com 1.10,2013-02-26 23:38:00,
2013-02-26 16:53:00,64.6,7.0,29.77,SW,219,11.0,25.0,10,0.00,,,0.00,176,weatherlink.com 1.10,2013-02-26 23:53:00,
2013-02-26 17:08:00,64.4,9.0,29.77,WSW,246,3.0,20.0,11,0.00,,,0.00,113,weatherlink.com 1.10,2013-02-27 00:08:00,
2013-02-26 17:24:00,64.0,8.0,29.77,WSW,254,2.0,17.0,11,0.00,,,0.00,60,weatherlink.com 1.10,2013-02-27 00:24:00,
2013-02-26 17:38:00,63.0,7.0,29.78,WNW,290,5.0,21.0,11,0.00,,,0.00,19,weatherlink.com 1.10,2013-02-27 00:38:00,
2013-02-26 17:53:00,62.1,7.0,29.78,West,273,2.0,20.0,11,0.00,,,0.00,9,weatherlink.com 1.10,2013-02-27 00:53:00,
2013-02-26 18:08:00,61.3,6.0,29.79,WNW,282,1.0,17.0,11,0.00,,,0.00,0,weatherlink.com 1.10,2013-02-27 01:08:00,
2013-02-26 18:23:00,61.1,4.0,29.79,West,276,1.0,21.0,10,0.00,,,0.00,0,weatherlink.com 1.10,2013-02-27 01:23:00,
2013-02-26 18:38:00,60.3,5.0,29.80,WNW,285,8.0,15.0,11,0.00,,,0.00,0,weatherlink.com 1.10,2013-02-27 01:38:00,
2013-02-26 18:53:00,59.8,5.0,29.80,West,277,1.0,19.0,11,0.00,,,0.00,0,weatherlink.com 1.10,2013-02-27 01:53:00,
2013-02-26 19:08:00,59.0,4.0,29.81,West,268,2.0,17.0,11,0.00,,,0.00,0,weatherlink.com 1.10,2013-02-27 02:08:00,
2013-02-26 19:23:00,58.9,6.0,29.81,West,277,3.0,20.0,12,0.00,,,0.00,0,weatherlink.com 1.10,2013-02-27 02:23:00,
2013-02-26 19:38:00,58.6,8.0,29.82,West,260,2.0,19.0,13,0.00,,,0.00,0,weatherlink.com 1.10,2013-02-27 02:38:00,
2013-02-26 19:53:00,58.4,8.0,29.83,West,275,0.0,20.0,13,0.00,,,0.00,0,weatherlink.com 1.10,2013-02-27 02:53:00,
2013-02-26 20:08:00,57.5,8.0,29.86,WNW,291,1.0,8.0,14,0.00,,,0.00,0,weatherlink.com 1.10,2013-02-27 03:08:00,
2013-02-26 20:23:00,56.9,8.0,29.88,NNW,330,0.0,15.0,14,0.00,,,0.00,0,weatherlink.com 1.10,2013-02-27 03:23:00,
2013-02-26 20:38:00,56.0,9.0,29.89,North,349,1.0,10.0,15,0.00,,,0.00,0,weatherlink.com 1.10,2013-02-27 03:38:00,
2013-02-26 20:53:00,54.5,9.0,29.91,NNW,347,3.0,15.0,16,0.00,,,0.00,0,weatherlink.com 1.10,2013-02-27 03:53:00,
2013-02-26 21:08:00,52.3,8.0,29.91,NNE,23,7.0,18.0,17,0.00,,,0.00,0,weatherlink.com 1.10,2013-02-27 04:08:00,
2013-02-26 21:23:00,51.4,6.0,29.92,NNE,32,9.0,18.0,16,0.00,,,0.00,0,weatherlink.com 1.10,2013-02-27 04:23:00,
2013-02-26 21:38:00,50.6,6.0,29.93,NNE,28,2.0,15.0,16,0.00,,,0.00,0,weatherlink.com 1.10,2013-02-27 04:38:00,
2013-02-26 21:53:00,49.7,5.0,29.94,North,10,2.0,14.0,16,0.00,,,0.00,0,weatherlink.com 1.10,2013-02-27 04:53:00,
2013-02-26 22:08:00,48.8,4.0,29.95,North,5,1.0,7.0,16,0.00,,,0.00,0,weatherlink.com 1.10,2013-02-27 05:08:00,
2013-02-26 22:23:00,48.2,4.0,29.96,North,5,1.0,8.0,16,0.00,,,0.00,0,weatherlink.com 1.10,2013-02-27 05:23:00,
2013-02-26 22:38:00,47.5,4.0,29.97,North,355,1.0,8.0,17,0.00,,,0.00,0,weatherlink.com 1.10,2013-02-27 05:38:00,
2013-02-26 22:53:00,46.9,4.0,29.98,North,355,3.0,6.0,17,0.00,,,0.00,0,weatherlink.com 1.10,2013-02-27 05:53:00,
2013-02-26 23:08:00,46.3,5.0,29.99,North,355,0.0,9.0,18,0.00,,,0.00,0,weatherlink.com 1.10,2013-02-27 06:08:00,
2013-02-26 23:23:00,45.9,4.0,29.99,North,355,2.0,10.0,18,0.00,,,0.00,0,weatherlink.com 1.10,2013-02-27 06:23:00,
2013-02-26 23:40:00,45.2,6.0,29.99,NNW,345,0.0,8.0,20,0.00,,,0.00,0,weatherlink.com 1.10,2013-02-27 06:40:00,
2013-02-26 23:53:00,44.7,6.0,29.99,NNW,338,2.0,9.0,20,0.00,,,0.00,0,weatherlink.com 1.10,2013-02-27 06:53:00,